Time,TemperatureF,DewpointF,PressureIn,WindDirection,WindDirectionDegrees,WindSpeedMPH,WindSpeedGustMPH,Humidity,HourlyPrecipIn,Conditions,Clouds,dailyrainin,SoftwareType,DateUTC
2013-07-19 00:00:00,75.8,74.3,29.93,WNW,297,0.0,0.0,95,0.00,,,0.00,Wunderground v.1.15,2013-07-19 04:00:00,
2013-07-19 00:05:00,75.7,74.5,29.93,WNW,297,0.0,0.0,96,0.00,,,0.00,Wunderground v.1.15,2013-07-19 04:05:00,
2013-07-19 00:10:00,75.6,74.4,29.93,WNW,297,0.0,0.0,96,0.00,,,0.00,Wunderground v.1.15,2013-07-19 04:10:00,
2013-07-19 00:15:00,75.5,74.3,29.93,WNW,297,0.0,0.0,96,0.00,,,0.00,Wunderground v.1.15,2013-07-19 04:15:00,
2013-07-19 00:19:00,75.4,74.2,29.93,WNW,297,0.0,0.0,96,0.00,,,0.00,Wunderground v.1.15,2013-07-19 04:19:00,
2013-07-19 00:25:00,75.4,74.2,29.93,WNW,297,0.0,0.0,96,0.00,,,0.00,Wunderground v.1.15,2013-07-19 04:25:00,
2013-07-19 00:35:00,75.2,74.0,29.93,WNW,297,0.0,0.0,96,0.00,,,0.00,Wunderground v.1.15,2013-07-19 04:35:00,
2013-07-19 00:45:00,75.0,73.8,29.93,WNW,297,0.0,0.0,96,0.00,,,0.00,Wunderground v.1.15,2013-07-19 04:45:00,
2013-07-19 00:50:00,75.0,73.8,29.94,WNW,297,0.0,0.0,96,0.00,,,0.00,Wunderground v.1.15,2013-07-19 04:50:00,
2013-07-19 01:00:00,74.9,74.0,29.93,WNW,297,0.0,0.0,97,0.00,,,0.00,Wunderground v.1.15,2013-07-19 05:00:00,
2013-07-19 01:10:00,74.8,73.9,29.93,WNW,297,0.0,0.0,97,0.00,,,0.00,Wunderground v.1.15,2013-07-19 05:10:00,
2013-07-19 01:15:00,74.8,73.9,29.93,WNW,297,0.0,0.0,97,0.00,,,0.00,Wunderground v.1.15,2013-07-19 05:15:00,
2013-07-19 01:25:00,74.7,73.8,29.93,WNW,297,0.0,0.0,97,0.00,,,0.00,Wunderground v.1.15,2013-07-19 05:25:00,
2013-07-19 01:30:00,74.7,73.8,29.93,WNW,297,0.0,0.0,97,0.00,,,0.00,Wunderground v.1.15,2013-07-19 05:30:00,
2013-07-19 01:39:00,74.6,73.7,29.92,WNW,297,0.0,0.0,97,0.00,,,0.00,Wunderground v.1.15,2013-07-19 05:39:00,
2013-07-19 01:45:00,74.6,73.7,29.92,WNW,297,0.0,0.0,97,0.00,,,0.00,Wunderground v.1.15,2013-07-19 05:45:00,
2013-07-19 01:55:00,74.5,73.6,29.93,WNW,297,0.0,0.0,97,0.00,,,0.00,Wunderground v.1.15,2013-07-19 05:55:00,
2013-07-19 02:00:00,74.5,73.6,29.93,WNW,297,0.0,0.0,97,0.00,,,0.00,Wunderground v.1.15,2013-07-19 06:00:00,
2013-07-19 02:10:00,74.4,73.8,29.92,WNW,297,0.0,0.0,98,0.00,,,0.00,Wunderground v.1.15,2013-07-19 06:10:00,
2013-07-19 02:20:00,74.3,73.7,29.92,WNW,297,0.0,0.0,98,0.00,,,0.00,Wunderground v.1.15,2013-07-19 06:20:00,
2013-07-19 02:25:00,74.2,73.6,29.92,WNW,297,0.0,0.0,98,0.00,,,0.00,Wunderground v.1.15,2013-07-19 06:25:00,
2013-07-19 02:34:00,74.1,73.5,29.93,WNW,297,0.0,0.0,98,0.00,,,0.00,Wunderground v.1.15,2013-07-19 06:34:00,
2013-07-19 02:40:00,74.0,73.4,29.92,WNW,297,0.0,0.0,98,0.00,,,0.00,Wunderground v.1.15,2013-07-19 06:40:00,
2013-07-19 02:50:00,73.9,73.3,29.92,WNW,297,0.0,0.0,98,0.00,,,0.00,Wunderground v.1.15,2013-07-19 06:50:00,
2013-07-19 03:00:00,73.8,73.2,29.92,WNW,297,0.0,0.0,98,0.00,,,0.00,Wunderground v.1.15,2013-07-19 07:00:00,
2013-07-19 03:10:00,73.7,73.1,29.92,WNW,297,0.0,0.0,98,0.00,,,0.00,Wunderground v.1.15,2013-07-19 07:10:00,
2013-07-19 03:15:00,73.7,73.1,29.92,WNW,297,0.0,0.0,98,0.00,,,0.00,Wunderground v.1.15,2013-07-19 07:15:00,
2013-07-19 03:25:00,73.6,73.0,29.92,WNW,297,0.0,0.0,98,0.00,,,0.00,Wunderground v.1.15,2013-07-19 07:25:00,
2013-07-19 03:35:00,73.5,72.9,29.92,WNW,297,0.0,0.0,98,0.00,,,0.00,Wunderground v.1.15,2013-07-19 07:35:00,
2013-07-19 03:45:00,73.4,73.1,29.92,WNW,297,0.0,0.0,99,0.00,,,0.00,Wunderground v.1.15,2013-07-19 07:45:00,
2013-07-19 03:55:00,73.3,72.7,29.92,WNW,297,0.0,0.0,98,0.00,,,0.00,Wunderground v.1.15,2013-07-19 07:55:00,
2013-07-19 04:00:00,73.2,72.6,29.92,WNW,297,0.0,0.0,98,0.00,,,0.00,Wunderground v.1.15,2013-07-19 08:00:00,
2013-07-19 04:10:00,73.2,72.9,29.91,WNW,297,0.0,0.0,99,0.00,,,0.00,Wunderground v.1.15,2013-07-19 08:10:00,
2013-07-19 04:20:00,73.1,72.8,29.91,WNW,297,0.0,0.0,99,0.00,,,0.00,Wunderground v.1.15,2013-07-19 08:20:00,
2013-07-19 04:29:00,73.0,72.7,29.91,WNW,297,0.0,0.0,99,0.00,,,0.00,Wunderground v.1.15,2013-07-19 08:29:00,
2013-07-19 04:35:00,73.1,72.8,29.91,WNW,297,0.0,0.0,99,0.00,,,0.00,Wunderground v.1.15,2013-07-19 08:35:00,
2013-07-19 04:45:00,73.0,72.7,29.91,WNW,297,0.0,0.0,99,0.00,,,0.00,Wunderground v.1.15,2013-07-19 08:45:00,
2013-07-19 04:55:00,73.1,72.8,29.91,WNW,297,0.0,0.0,99,0.00,,,0.00,Wunderground v.1.15,2013-07-19 08:55:00,
2013-07-19 05:00:00,73.1,72.8,29.90,WNW,297,0.0,0.0,99,0.00,,,0.00,Wunderground v.1.15,2013-07-19 09:00:00,
2013-07-19 05:09:00,73.0,72.7,29.91,WNW,297,0.0,0.0,99,0.00,,,0.00,Wunderground v.1.15,2013-07-19 09:09:00,
2013-07-19 05:15:00,73.0,72.7,29.91,WNW,297,0.0,0.0,99,0.00,,,0.00,Wunderground v.1.15,2013-07-19 09:15:00,
2013-07-19 05:25:00,73.0,72.7,29.91,WNW,297,0.0,0.0,99,0.00,,,0.00,Wunderground v.1.15,2013-07-19 09:25:00,
2013-07-19 05:35:00,73.0,72.7,29.91,WNW,297,0.0,0.0,99,0.00,,,0.00,Wunderground v.1.15,2013-07-19 09:35:00,
2013-07-19 05:40:00,72.9,72.6,29.91,WSW,252,0.0,0.0,99,0.00,,,0.00,Wunderground v.1.15,2013-07-19 09:40:00,
2013-07-19 05:50:00,72.9,72.6,29.91,WSW,252,0.0,0.0,99,0.00,,,0.00,Wunderground v.1.15,2013-07-19 09:50:00,
2013-07-19 05:55:00,72.9,72.6,29.91,WSW,252,0.0,0.0,99,0.00,,,0.00,Wunderground v.1.15,2013-07-19 09:55:00,
2013-07-19 06:00:00,72.9,72.6,29.91,WSW,252,0.0,0.0,99,0.00,,,0.00,Wunderground v.1.15,2013-07-19 10:00:00,
2013-07-19 06:10:00,72.9,72.6,29.91,WSW,252,0.0,0.0,99,0.00,,,0.00,Wunderground v.1.15,2013-07-19 10:10:00,
2013-07-19 06:20:00,72.9,72.9,29.90,WSW,252,0.0,0.0,100,0.00,,,0.00,Wunderground v.1.15,2013-07-19 10:20:00,
2013-07-19 06:25:00,72.9,72.9,29.91,WSW,252,0.0,0.0,100,0.00,,,0.00,Wunderground v.1.15,2013-07-19 10:25:00,
2013-07-19 06:35:00,73.0,73.0,29.90,WSW,252,0.0,0.0,100,0.00,,,0.00,Wunderground v.1.15,2013-07-19 10:35:00,
2013-07-19 06:45:00,73.0,73.0,29.91,WSW,252,0.0,0.0,100,0.00,,,0.00,Wunderground v.1.15,2013-07-19 10:45:00,
2013-07-19 06:55:00,73.3,73.3,29.91,WSW,252,0.0,0.0,100,0.00,,,0.00,Wunderground v.1.15,2013-07-19 10:55:00,
2013-07-19 07:00:00,73.4,73.4,29.91,WSW,252,0.0,0.0,100,0.00,,,0.00,Wunderground v.1.15,2013-07-19 11:00:00,
2013-07-19 07:10:00,73.8,73.8,29.91,WSW,252,0.0,0.0,100,0.00,,,0.00,Wunderground v.1.15,2013-07-19 11:10:00,
2013-07-19 07:20:00,74.2,74.2,29.91,WSW,252,0.0,0.0,100,0.00,,,0.00,Wunderground v.1.15,2013-07-19 11:20:00,
2013-07-19 07:29:00,74.6,74.6,29.91,WNW,284,0.0,0.0,100,0.00,,,0.00,Wunderground v.1.15,2013-07-19 11:29:00,
2013-07-19 07:35:00,74.9,74.9,29.92,WNW,284,0.0,1.0,100,0.00,,,0.00,Wunderground v.1.15,2013-07-19 11:35:00,
2013-07-19 07:44:00,75.4,74.8,29.91,WNW,293,0.0,2.0,98,0.00,,,0.00,Wunderground v.1.15,2013-07-19 11:44:00,
2013-07-19 07:50:00,75.7,75.1,29.92,WNW,293,0.0,0.0,98,0.00,,,0.00,Wunderground v.1.15,2013-07-19 11:50:00,
2013-07-19 08:00:00,76.5,75.0,29.92,WNW,293,0.0,2.0,95,0.00,,,0.00,Wunderground v.1.15,2013-07-19 12:00:00,
2013-07-19 08:10:00,77.6,75.4,29.92,NW,308,1.0,1.0,93,0.00,,,0.00,Wunderground v.1.15,2013-07-19 12:10:00,
2013-07-19 08:15:00,78.0,75.5,29.92,West,269,0.0,1.0,92,0.00,,,0.00,Wunderground v.1.15,2013-07-19 12:15:00,
2013-07-19 08:24:00,78.8,75.9,29.92,West,268,0.0,2.0,91,0.00,,,0.00,Wunderground v.1.15,2013-07-19 12:24:00,
2013-07-19 08:30:00,79.1,75.9,29.92,NW,311,0.0,2.0,90,0.00,,,0.00,Wunderground v.1.15,2013-07-19 12:30:00,
2013-07-19 08:39:00,79.7,75.1,29.91,West,277,1.0,3.0,86,0.00,,,0.00,Wunderground v.1.15,2013-07-19 12:39:00,
2013-07-19 08:45:00,80.0,75.8,29.91,WSW,257,1.0,3.0,87,0.00,,,0.00,Wunderground v.1.15,2013-07-19 12:45:00,
2013-07-19 08:55:00,80.7,75.4,29.92,SW,234,1.0,1.0,84,0.00,,,0.00,Wunderground v.1.15,2013-07-19 12:55:00,
2013-07-19 09:00:00,81.2,75.9,29.92,WSW,257,1.0,1.0,84,0.00,,,0.00,Wunderground v.1.15,2013-07-19 13:00:00,
2013-07-19 09:10:00,81.8,75.4,29.92,SW,235,1.0,2.0,81,0.00,,,0.00,Wunderground v.1.15,2013-07-19 13:10:00,
2013-07-19 09:20:00,82.5,74.9,29.92,SSW,210,1.0,1.0,78,0.00,,,0.00,Wunderground v.1.15,2013-07-19 13:20:00,
2013-07-19 09:29:00,83.3,75.7,29.92,SW,226,1.0,1.0,78,0.00,,,0.00,Wunderground v.1.15,2013-07-19 13:29:00,
2013-07-19 09:35:00,83.7,75.7,29.92,WNW,288,1.0,1.0,77,0.00,,,0.00,Wunderground v.1.15,2013-07-19 13:35:00,
2013-07-19 09:45:00,84.5,75.7,29.91,WNW,282,1.0,1.0,75,0.00,,,0.00,Wunderground v.1.15,2013-07-19 13:45:00,
2013-07-19 09:55:00,85.1,77.8,29.91,West,273,1.0,2.0,79,0.00,,,0.00,Wunderground v.1.15,2013-07-19 13:55:00,
2013-07-19 10:00:00,85.4,75.3,29.91,WNW,291,1.0,2.0,72,0.00,,,0.00,Wunderground v.1.15,2013-07-19 14:00:00,
2013-07-19 10:09:00,86.1,75.6,29.91,West,265,1.0,1.0,71,0.00,,,0.00,Wunderground v.1.15,2013-07-19 14:09:00,
2013-07-19 10:15:00,86.4,75.9,29.91,WNW,289,1.0,3.0,71,0.00,,,0.00,Wunderground v.1.15,2013-07-19 14:15:00,
2013-07-19 10:25:00,87.1,75.7,29.91,SW,229,2.0,3.0,69,0.00,,,0.00,Wunderground v.1.15,2013-07-19 14:25:00,
2013-07-19 10:34:00,88.1,77.1,29.90,SW,234,1.0,2.0,70,0.00,,,0.00,Wunderground v.1.15,2013-07-19 14:34:00,
2013-07-19 10:40:00,88.5,76.1,29.90,WNW,282,2.0,4.0,67,0.00,,,0.00,Wunderground v.1.15,2013-07-19 14:40:00,
2013-07-19 10:50:00,89.3,77.3,29.90,WNW,282,1.0,1.0,68,0.00,,,0.00,Wunderground v.1.15,2013-07-19 14:50:00,
2013-07-19 11:00:00,90.0,78.0,29.90,SW,218,2.0,2.0,68,0.00,,,0.00,Wunderground v.1.15,2013-07-19 15:00:00,
2013-07-19 11:10:00,90.7,78.7,29.89,West,278,1.0,1.0,68,0.00,,,0.00,Wunderground v.1.15,2013-07-19 15:10:00,
2013-07-19 11:20:00,91.1,78.2,29.89,West,281,4.0,4.0,66,0.00,,,0.00,Wunderground v.1.15,2013-07-19 15:20:00,
2013-07-19 11:29:00,91.6,79.1,29.89,WSW,238,1.0,1.0,67,0.00,,,0.00,Wunderground v.1.15,2013-07-19 15:29:00,
2013-07-19 11:35:00,91.8,77.9,29.89,SW,214,1.0,5.0,64,0.00,,,0.00,Wunderground v.1.15,2013-07-19 15:35:00,
2013-07-19 11:45:00,92.2,78.7,29.88,SW,218,2.0,2.0,65,0.00,,,0.00,Wunderground v.1.15,2013-07-19 15:45:00,
2013-07-19 11:55:00,92.8,77.4,29.88,WNW,291,2.0,3.0,61,0.00,,,0.00,Wunderground v.1.15,2013-07-19 15:55:00,
2013-07-19 12:00:00,92.8,77.4,29.88,SSW,211,2.0,2.0,61,0.00,,,0.00,Wunderground v.1.15,2013-07-19 16:00:00,
2013-07-19 12:09:00,93.0,80.0,29.88,WSW,237,2.0,5.0,66,0.00,,,0.00,Wunderground v.1.15,2013-07-19 16:09:00,
2013-07-19 12:15:00,93.2,78.2,29.87,WNW,291,2.0,5.0,62,0.00,,,0.00,Wunderground v.1.15,2013-07-19 16:15:00,
2013-07-19 12:25:00,93.7,78.7,29.87,WNW,282,1.0,2.0,62,0.00,,,0.00,Wunderground v.1.15,2013-07-19 16:25:00,
2013-07-19 12:35:00,93.9,78.4,29.87,SW,219,2.0,2.0,61,0.00,,,0.00,Wunderground v.1.15,2013-07-19 16:35:00,
2013-07-19 12:40:00,93.8,78.3,29.86,SW,223,3.0,3.0,61,0.00,,,0.00,Wunderground v.1.15,2013-07-19 16:40:00,
2013-07-19 12:50:00,94.2,79.2,29.85,South,175,2.0,3.0,62,0.00,,,0.00,Wunderground v.1.15,2013-07-19 16:50:00,
2013-07-19 13:00:00,94.4,77.9,29.85,SSE,165,3.0,5.0,59,0.00,,,0.00,Wunderground v.1.15,2013-07-19 17:00:00,
2013-07-19 13:10:00,94.5,77.4,29.85,WNW,283,4.0,6.0,58,0.00,,,0.00,Wunderground v.1.15,2013-07-19 17:10:00,
2013-07-19 13:20:00,94.7,77.1,29.84,South,171,4.0,6.0,57,0.00,,,0.00,Wunderground v.1.15,2013-07-19 17:20:00,
2013-07-19 13:30:00,94.8,79.2,29.84,WSW,247,3.0,3.0,61,0.00,,,0.00,Wunderground v.1.15,2013-07-19 17:30:00,
2013-07-19 13:40:00,94.9,77.8,29.84,WSW,255,3.0,3.0,58,0.00,,,0.00,Wunderground v.1.15,2013-07-19 17:40:00,
2013-07-19 13:45:00,95.0,77.9,29.84,SSE,156,3.0,3.0,58,0.00,,,0.00,Wunderground v.1.15,2013-07-19 17:45:00,
2013-07-19 13:54:00,95.0,79.9,29.83,West,280,3.0,7.0,62,0.00,,,0.00,Wunderground v.1.15,2013-07-19 17:54:00,
2013-07-19 14:00:00,95.1,78.0,29.83,South,183,3.0,3.0,58,0.00,,,0.00,Wunderground v.1.15,2013-07-19 18:00:00,
2013-07-19 14:09:00,95.4,76.7,29.83,SW,217,3.0,3.0,55,0.00,,,0.00,Wunderground v.1.15,2013-07-19 18:09:00,
2013-07-19 14:15:00,95.3,77.1,29.83,SW,228,3.0,3.0,56,0.00,,,0.00,Wunderground v.1.15,2013-07-19 18:15:00,
2013-07-19 14:25:00,95.2,79.1,29.83,SSW,202,2.0,5.0,60,0.00,,,0.00,Wunderground v.1.15,2013-07-19 18:25:00,
2013-07-19 14:35:00,95.3,77.1,29.83,WSW,248,3.0,7.0,56,0.00,,,0.00,Wunderground v.1.15,2013-07-19 18:35:00,
2013-07-19 14:40:00,94.9,78.3,29.82,SW,229,5.0,5.0,59,0.00,,,0.00,Wunderground v.1.15,2013-07-19 18:40:00,
2013-07-19 14:49:00,94.9,76.2,29.82,NW,315,3.0,4.0,55,0.00,,,0.00,Wunderground v.1.15,2013-07-19 18:49:00,
2013-07-19 14:55:00,94.9,77.3,29.81,West,263,3.0,6.0,57,0.00,,,0.00,Wunderground v.1.15,2013-07-19 18:55:00,
2013-07-19 15:00:00,95.0,77.9,29.81,South,177,3.0,3.0,58,0.00,,,0.00,Wunderground v.1.15,2013-07-19 19:00:00,
2013-07-19 15:10:00,95.1,77.5,29.81,West,279,3.0,3.0,57,0.00,,,0.00,Wunderground v.1.15,2013-07-19 19:10:00,
2013-07-19 15:20:00,95.3,76.6,29.80,SW,234,3.0,5.0,55,0.00,,,0.00,Wunderground v.1.15,2013-07-19 19:20:00,
2013-07-19 15:30:00,95.1,76.9,29.79,South,190,3.0,3.0,56,0.00,,,0.00,Wunderground v.1.15,2013-07-19 19:30:00,
2013-07-19 15:35:00,95.1,78.0,29.79,WSW,257,3.0,3.0,58,0.00,,,0.00,Wunderground v.1.15,2013-07-19 19:35:00,
2013-07-19 15:44:00,95.1,78.0,29.78,SW,228,2.0,3.0,58,0.00,,,0.00,Wunderground v.1.15,2013-07-19 19:44:00,
2013-07-19 15:50:00,95.0,77.4,29.78,SW,220,3.0,6.0,57,0.00,,,0.00,Wunderground v.1.15,2013-07-19 19:50:00,
2013-07-19 16:00:00,94.5,77.4,29.78,SW,233,2.0,4.0,58,0.00,,,0.00,Wunderground v.1.15,2013-07-19 20:00:00,
2013-07-19 16:09:00,94.3,77.2,29.78,SSE,161,3.0,3.0,58,0.00,,,0.00,Wunderground v.1.15,2013-07-19 20:09:00,
2013-07-19 16:15:00,93.9,76.4,29.78,South,188,3.0,3.0,57,0.00,,,0.00,Wunderground v.1.15,2013-07-19 20:15:00,
2013-07-19 16:25:00,93.6,75.5,29.77,WSW,255,3.0,5.0,56,0.00,,,0.00,Wunderground v.1.15,2013-07-19 20:25:00,
2013-07-19 16:35:00,93.2,75.7,29.77,WNW,282,4.0,4.0,57,0.00,,,0.00,Wunderground v.1.15,2013-07-19 20:35:00,
2013-07-19 16:40:00,93.0,75.5,29.77,SW,223,3.0,3.0,57,0.00,,,0.00,Wunderground v.1.15,2013-07-19 20:40:00,
2013-07-19 16:50:00,92.7,76.3,29.77,SSW,193,3.0,5.0,59,0.00,,,0.00,Wunderground v.1.15,2013-07-19 20:50:00,
2013-07-19 16:55:00,92.5,76.6,29.76,ENE,60,3.0,5.0,60,0.00,,,0.00,Wunderground v.1.15,2013-07-19 20:55:00,
2013-07-19 17:00:00,92.5,76.6,29.76,NE,35,2.0,2.0,60,0.00,,,0.00,Wunderground v.1.15,2013-07-19 21:00:00,
2013-07-19 17:10:00,92.3,76.9,29.76,WSW,237,2.0,2.0,61,0.00,,,0.00,Wunderground v.1.15,2013-07-19 21:10:00,
2013-07-19 17:20:00,92.1,77.2,29.75,WSW,243,2.0,4.0,62,0.00,,,0.00,Wunderground v.1.15,2013-07-19 21:20:00,
2013-07-19 17:25:00,91.9,75.5,29.75,West,279,2.0,4.0,59,0.00,,,0.00,Wunderground v.1.15,2013-07-19 21:25:00,
2013-07-19 17:35:00,91.8,76.9,29.75,SW,230,2.0,5.0,62,0.00,,,0.00,Wunderground v.1.15,2013-07-19 21:35:00,
2013-07-19 17:40:00,91.7,76.3,29.75,SW,225,2.0,3.0,61,0.00,,,0.00,Wunderground v.1.15,2013-07-19 21:40:00,
2013-07-19 17:50:00,91.5,76.1,29.75,WSW,244,2.0,2.0,61,0.00,,,0.00,Wunderground v.1.15,2013-07-19 21:50:00,
2013-07-19 17:55:00,91.4,76.1,29.75,South,173,1.0,2.0,61,0.00,,,0.00,Wunderground v.1.15,2013-07-19 21:55:00,
2013-07-19 18:00:00,91.3,76.0,29.75,SSW,207,2.0,2.0,61,0.00,,,0.00,Wunderground v.1.15,2013-07-19 22:00:00,
2013-07-19 18:10:00,91.2,75.9,29.75,WSW,246,2.0,2.0,61,0.00,,,0.00,Wunderground v.1.15,2013-07-19 22:10:00,
2013-07-19 18:15:00,91.0,75.2,29.75,SSE,153,1.0,2.0,60,0.00,,,0.00,Wunderground v.1.15,2013-07-19 22:15:00,
2013-07-19 18:25:00,90.8,75.5,29.75,WNW,288,2.0,2.0,61,0.00,,,0.00,Wunderground v.1.15,2013-07-19 22:25:00,
2013-07-19 18:30:00,90.7,74.9,29.75,West,279,2.0,4.0,60,0.00,,,0.00,Wunderground v.1.15,2013-07-19 22:30:00,
2013-07-19 18:39:00,90.6,74.8,29.76,WSW,250,2.0,2.0,60,0.00,,,0.00,Wunderground v.1.15,2013-07-19 22:39:00,
2013-07-19 18:45:00,90.5,75.2,29.75,WNW,296,1.0,2.0,61,0.00,,,0.00,Wunderground v.1.15,2013-07-19 22:45:00,
2013-07-19 18:55:00,90.3,75.5,29.75,WSW,244,1.0,2.0,62,0.00,,,0.00,Wunderground v.1.15,2013-07-19 22:55:00,
2013-07-19 19:00:00,90.1,76.3,29.76,NNW,331,1.0,1.0,64,0.00,,,0.00,Wunderground v.1.15,2013-07-19 23:00:00,
2013-07-19 19:10:00,89.8,75.5,29.76,West,268,1.0,1.0,63,0.00,,,0.00,Wunderground v.1.15,2013-07-19 23:10:00,
2013-07-19 19:20:00,89.4,75.1,29.76,WNW,298,2.0,2.0,63,0.00,,,0.00,Wunderground v.1.15,2013-07-19 23:20:00,
2013-07-19 19:30:00,89.1,74.9,29.76,WNW,294,1.0,2.0,63,0.00,,,0.00,Wunderground v.1.15,2013-07-19 23:30:00,
2013-07-19 19:35:00,88.9,75.1,29.76,WSW,241,1.0,2.0,64,0.00,,,0.00,Wunderground v.1.15,2013-07-19 23:35:00,
2013-07-19 19:45:00,88.5,74.3,29.76,WNW,302,2.0,2.0,63,0.00,,,0.00,Wunderground v.1.15,2013-07-19 23:45:00,
2013-07-19 19:50:00,88.4,74.2,29.76,WNW,300,1.0,1.0,63,0.00,,,0.00,Wunderground v.1.15,2013-07-19 23:50:00,
2013-07-19 20:00:00,88.1,74.4,29.76,WNW,297,0.0,0.0,64,0.00,,,0.00,Wunderground v.1.15,2013-07-20 00:00:00,
2013-07-19 20:10:00,87.8,74.6,29.76,SW,225,1.0,1.0,65,0.00,,,0.00,Wunderground v.1.15,2013-07-20 00:10:00,
2013-07-19 20:15:00,87.6,74.4,29.76,SW,225,1.0,1.0,65,0.00,,,0.00,Wunderground v.1.15,2013-07-20 00:15:00,
2013-07-19 20:25:00,87.1,74.4,29.76,SW,225,1.0,1.0,66,0.00,,,0.00,Wunderground v.1.15,2013-07-20 00:25:00,
2013-07-19 20:30:00,87.0,73.8,29.76,SW,215,1.0,1.0,65,0.00,,,0.00,Wunderground v.1.15,2013-07-20 00:30:00,
2013-07-19 20:39:00,86.8,74.1,29.77,SW,233,1.0,2.0,66,0.00,,,0.00,Wunderground v.1.15,2013-07-20 00:39:00,
2013-07-19 20:45:00,86.7,74.0,29.77,West,281,2.0,2.0,66,0.00,,,0.00,Wunderground v.1.15,2013-07-20 00:45:00,
2013-07-19 20:55:00,86.6,73.9,29.78,West,281,1.0,2.0,66,0.00,,,0.00,Wunderground v.1.15,2013-07-20 00:55:00,
2013-07-19 21:00:00,86.6,74.3,29.78,SW,226,1.0,1.0,67,0.00,,,0.00,Wunderground v.1.15,2013-07-20 01:00:00,
2013-07-19 21:10:00,86.4,74.1,29.79,SW,228,1.0,1.0,67,0.00,,,0.00,Wunderground v.1.15,2013-07-20 01:10:00,
2013-07-19 21:20:00,86.1,74.3,29.79,SW,227,1.0,1.0,68,0.00,,,0.00,Wunderground v.1.15,2013-07-20 01:20:00,
2013-07-19 21:29:00,86.0,74.6,29.79,SW,219,1.0,1.0,69,0.00,,,0.00,Wunderground v.1.15,2013-07-20 01:29:00,
2013-07-19 21:35:00,85.9,75.0,29.79,SW,221,1.0,1.0,70,0.00,,,0.00,Wunderground v.1.15,2013-07-20 01:35:00,
2013-07-19 21:45:00,85.8,75.3,29.79,SSW,202,1.0,2.0,71,0.00,,,0.00,Wunderground v.1.15,2013-07-20 01:45:00,
2013-07-19 21:54:00,85.6,75.9,29.78,SW,214,1.0,1.0,73,0.00,,,0.00,Wunderground v.1.15,2013-07-20 01:54:00,
2013-07-19 22:00:00,85.5,75.9,29.78,SSW,211,1.0,2.0,73,0.00,,,0.00,Wunderground v.1.15,2013-07-20 02:00:00,
2013-07-19 22:10:00,85.4,76.2,29.78,SW,234,1.0,1.0,74,0.00,,,0.00,Wunderground v.1.15,2013-07-20 02:10:00,
2013-07-19 22:15:00,85.4,76.6,29.78,WSW,258,1.0,2.0,75,0.00,,,0.00,Wunderground v.1.15,2013-07-20 02:15:00,
2013-07-19 22:25:00,85.4,76.6,29.77,SW,216,2.0,3.0,75,0.00,,,0.00,Wunderground v.1.15,2013-07-20 02:25:00,
2013-07-19 22:35:00,85.3,76.9,29.77,WSW,250,1.0,1.0,76,0.00,,,0.00,Wunderground v.1.15,2013-07-20 02:35:00,
2013-07-19 22:40:00,85.3,76.9,29.77,NNE,32,1.0,2.0,76,0.00,,,0.00,Wunderground v.1.15,2013-07-20 02:40:00,
2013-07-19 22:50:00,85.3,76.9,29.77,West,281,2.0,2.0,76,0.00,,,0.00,Wunderground v.1.15,2013-07-20 02:50:00,
2013-07-19 23:00:00,85.3,76.9,29.76,SW,234,2.0,2.0,76,0.00,,,0.00,Wunderground v.1.15,2013-07-20 03:00:00,
2013-07-19 23:10:00,85.1,76.7,29.76,West,271,1.0,2.0,76,0.00,,,0.00,Wunderground v.1.15,2013-07-20 03:10:00,
2013-07-19 23:15:00,85.1,76.7,29.76,SW,227,1.0,3.0,76,0.00,,,0.00,Wunderground v.1.15,2013-07-20 03:15:00,
2013-07-19 23:30:00,84.9,76.1,29.76,WSW,244,2.0,2.0,75,0.00,,,0.00,Wunderground v.1.15,2013-07-20 03:30:00,
2013-07-19 23:40:00,84.7,75.9,29.75,SW,224,1.0,1.0,75,0.00,,,0.00,Wunderground v.1.15,2013-07-20 03:40:00,
2013-07-19 23:50:00,84.5,75.7,29.75,West,275,1.0,2.0,75,0.00,,,0.00,Wunderground v.1.15,2013-07-20 03:50:00,
2013-07-19 23:55:00,84.4,76.0,29.76,SW,222,1.0,2.0,76,0.00,,,0.00,Wunderground v.1.15,2013-07-20 03:55:00,